Regional Weather Roundup
Issued by NWS

Home | Current Version | Previous Version | Graphics & Text | Print | Product List | Glossary On
Versions: 1 2 3 4 5 6 7 8 9 10 11 12 13 14 15 16 17 18 19 20 21 22 23 24 25 26 27 28 29 30 31 32 33 34 35 36 37 38 39 40 41 42 43 44 45 46 47 48 49 50
000
ASUS43 KTOP 300159
RWRKS

WEATHER ROUNDUP FOR KANSAS
NATIONAL WEATHER SERVICE GOODLAND KS
800 PM CST THU JAN 29 2015

NOTE:  "FAIR" INDICATES FEW OR NO CLOUDS BELOW 12,000 FEET WITH NO
SIGNIFICANT WEATHER AND/OR OBSTRUCTIONS TO VISIBILITY.

KSZ001>006-013>018-027>032-041>047-300300-
NORTHWEST KANSAS

CITY           SKY/WX    TMP DP  RH WIND       PRES   REMARKS
GOODLAND       PTCLDY    30  20  66 SE7       30.46F
HAYS           PTCLDY    34  16  47 CALM      30.51R
HILL CITY      MOCLDY    26  17  68 N6        30.51R
RUSSELL        PTCLDY    37  24  59 VRB3      30.49S
$$

KSZ061>065-074>080-084>089-300300-
SOUTHWEST KANSAS

CITY           SKY/WX    TMP DP  RH WIND       PRES   REMARKS
DODGE CITY     MOCLDY    30  19  63 NE6       30.50R
ELKHART          N/A     40  22  49 E8          N/A
GARDEN CITY    MOCLDY    35  20  54 NE7       30.49R
LIBERAL        CLOUDY    43  21  42 E3        30.51R
$$

KSZ066>073-081>083-090>101-300300-
SOUTHEAST KANSAS

CITY           SKY/WX    TMP DP  RH WIND       PRES   REMARKS
CHANUTE        CLEAR     35  27  72 N8        30.50R
COFFEYVILLE    CLEAR     38  27  64 N8        30.50R
HUTCHINSON     CLEAR     36  23  59 N6        30.51R
MEDICINE LODGE   N/A     34  23  64 N6        30.50S
NEWTON         CLEAR     34  19  55 N7        30.51S
PARSONS        CLEAR     37  27  67 N6        30.50R
WICHITA INTL   PTCLDY    41  25  53 N7        30.50R
WICHITA JABRA  CLEAR     35  24  64 N8        30.50R
WINFIELD       CLEAR     34  24  67 N6        30.51R
$$

KSZ007>012-019>026-033>040-048>060-102>105-300300-
NORTHEAST KANSAS

CITY           SKY/WX    TMP DP  RH WIND       PRES   REMARKS
CONCORDIA      CLEAR     35  23  61 NW7       30.51R
EMPORIA        CLEAR     33  26  75 N5        30.49R
LAWRENCE       CLEAR     29  23  78 N6        30.52R
MANHATTAN      CLEAR     29  23  78 CALM      30.52R
OLATHE IND     CLEAR     33  25  72 NW10      30.50R WCI  25
OLATHE EXE     FAIR      35  24  64 NW6       30.49R
SALINA         CLEAR     36  23  59 NW3       30.51S
TOPEKA BILLARD CLEAR     33  25  72 CALM      30.52R
TOPEKA FORBES  CLEAR     33  24  69 N5        30.51R
$$


USA.gov is the U.S. government's official web portal to all federal, state and local government web resources and services.